Weather History for Lafayette, LA

Change the Weather History Date:

Sunday, April 17, 2011

  Actual Average Record
Temperature  
Mean Temperature 66 °F 69 °F  
Max Temperature 80 °F 80 °F 93 °F (2006)
Min Temperature 51 °F 59 °F 41 °F (1928)
Degree Days  
Heating Degree Days 0 1  
Month to date heating degree days 12 32  
Since 1 July heating degree days 1531 1412  
Cooling Degree Days 1 5  
Month to date cooling degree days 126 73  
Year to date cooling degree days 297 168  
Growing Degree Days 15 (Base 50)    
Moisture  
Dew Point 47 °F    
Average Humidity 55    
Maximum Humidity 84    
Minimum Humidity 26    
Precipitation  
Precipitation 0.00 in 0.14 in 3.33 in (1900)
Month to date precipitation 0.09 2.11  
Year to date precipitation 9.01 16.02  
Snow  
Snow 0.00 in 0.00 in 0.00 in ()
Month to date snowfall 0.0 0.0  
Since 1 July snowfall 0.0 T  
Snow Depth 0.00 in    
Sea Level Pressure  
Sea Level Pressure 30.02 in    
Wind  
Wind Speed 5 mph (SSE)    
Max Wind Speed 16 mph    
Max Gust Speed 21 mph    
Visibility 10 miles    
Events      
T = Trace of Precipitation, MM = Missing Value Source: NWS Daily Summary

Daily Weather History Graph

Daily Weather History Graph

Search for Another Location

Airport:

Trip Planner

Search our weather history database for the weather conditions in past years. The results will help you decide how hot, cold, wet, or windy it might be!

Date:

Astronomy

Apr. 17, 2011 Rise Set
Actual Time 6:38 AM CDT 7:36 PM CDT
Civil Twilight 6:14 AM CDT 8:01 PM CDT
Nautical Twilight 5:45 AM CDT 8:30 PM CDT
Astronomical Twilight 5:15 AM CDT 9:00 PM CDT
Moon 7:30 PM CDT (4/17) 5:57 AM CDT (4/17)
Length of Visible Light 13h 46m
Length of Day
12h 57m
Full, 100% of the Moon is Illuminated
Apr 17
Full
Apr 17
Full
Apr 24
Last Quarter
May 3
New
May 10
First Quarter

Hourly Weather History & Observations

Time (CDT) Temp. Dew Point Humidity Pressure Visibility Wind Dir Wind Speed Gust Speed Precip Events Conditions
12:53 AM 54.0 °F 46.9 °F 77% 30.05 in 10.0 mi Calm Calm - N/A   Clear
1:53 AM 55.9 °F 42.1 °F 60% 30.05 in 10.0 mi Calm Calm - N/A   Clear
2:53 AM 54.0 °F 42.1 °F 64% 30.04 in 10.0 mi NE 4.6 mph - N/A   Clear
3:53 AM 54.0 °F 43.0 °F 66% 30.04 in 10.0 mi Calm Calm - N/A   Clear
4:53 AM 53.1 °F 45.0 °F 74% 30.05 in 10.0 mi Calm Calm - N/A   Clear
5:53 AM 53.1 °F 46.0 °F 77% 30.06 in 10.0 mi Calm Calm - N/A   Clear
6:53 AM 51.1 °F 45.0 °F 80% 30.07 in 10.0 mi Calm Calm - N/A   Clear
7:53 AM 57.0 °F 46.0 °F 67% 30.09 in 10.0 mi Variable 3.5 mph - N/A   Clear
8:53 AM 62.1 °F 46.0 °F 56% 30.09 in 10.0 mi East 6.9 mph - N/A   Clear
9:53 AM 66.9 °F 45.0 °F 45% 30.09 in 10.0 mi Variable 6.9 mph - N/A   Clear
10:53 AM 70.0 °F 37.9 °F 31% 30.09 in 10.0 mi Variable 5.8 mph - N/A   Clear
11:53 AM 73.0 °F 39.0 °F 29% 30.09 in 10.0 mi SE 5.8 mph - N/A   Clear
12:53 PM 75.9 °F 39.9 °F 27% 30.06 in 10.0 mi Variable 6.9 mph 16.1 mph N/A   Clear
1:53 PM 77.0 °F 39.0 °F 25% 30.03 in 10.0 mi SSE 8.1 mph - N/A   Clear
2:53 PM 78.1 °F 43.0 °F 29% 30.01 in 10.0 mi South 6.9 mph - N/A   Clear
3:53 PM 79.0 °F 50.0 °F 36% 29.98 in 10.0 mi SSW 16.1 mph 20.7 mph N/A   Clear
4:53 PM 77.0 °F 52.0 °F 42% 29.96 in 10.0 mi South 11.5 mph - N/A   Clear
5:53 PM 75.0 °F 53.1 °F 46% 29.96 in 10.0 mi South 11.5 mph - N/A   Clear
6:53 PM 73.0 °F 52.0 °F 48% 29.95 in 10.0 mi South 9.2 mph 17.3 mph N/A   Clear
7:53 PM 70.0 °F 55.9 °F 61% 29.95 in 10.0 mi South 4.6 mph - N/A   Clear
8:53 PM 69.1 °F 57.0 °F 65% 29.96 in 10.0 mi SSE 6.9 mph - N/A   Clear
9:53 PM 66.9 °F 57.0 °F 70% 29.96 in 10.0 mi Variable 3.5 mph - N/A   Clear
10:53 PM 66.0 °F 57.9 °F 75% 29.96 in 10.0 mi SE 4.6 mph - N/A   Clear
11:53 PM 64.9 °F 59.0 °F 81% 29.94 in 10.0 mi Calm Calm - N/A   Clear